Weather History for Millington, TN

Change the Weather History Date:

Thursday, January 17, 2013

  Actual Average Record
Temperature  
Mean Temperature 38 °F -  
Max Temperature 46 °F 47 °F - (-1)
Min Temperature 30 °F 30 °F - (-1)
Degree Days  
Heating Degree Days 27    
Moisture  
Dew Point 30 °F    
Average Humidity 78    
Maximum Humidity 93    
Minimum Humidity 66    
Precipitation  
Precipitation 0.00 in - - ()
Sea Level Pressure  
Sea Level Pressure 30.25 in    
Wind  
Wind Speed 5 mph (NW)    
Max Wind Speed 12 mph    
Max Gust Speed -    
Visibility 10 miles    
Events      
Averages and records for this station are not official NWS values.
T = Trace of Precipitation, MM = Missing Value Source: NWS Daily Summary

Daily Weather History Graph

Daily Weather History Graph

Search for Another Location

Airport:

Trip Planner

Search our weather history database for the weather conditions in past years. The results will help you decide how hot, cold, wet, or windy it might be!

Date:

Astronomy

Jan. 17, 2013 Rise Set
Actual Time 7:07 AM CST 5:12 PM CST
Civil Twilight 6:39 AM CST 5:40 PM CST
Nautical Twilight 6:08 AM CST 6:11 PM CST
Astronomical Twilight 5:38 AM CST 6:41 PM CST
Moon 10:29 AM CST (1/17) 11:46 PM CST (1/17)
Length of Visible Light 11h 00m
Length of Day
10h 05m
Waxing Crescent, 38% of the Moon is Illuminated
Jan 17
Waxing Crescent
Jan 18
First Quarter
Jan 26
Full
Feb 3
Last Quarter
Feb 10
New

Hourly Weather History & Observations

Time (CST) Temp. Windchill Dew Point Humidity Pressure Visibility Wind Dir Wind Speed Gust Speed Precip Events Conditions
12:55 AM 32.0 °F 28.7 °F 30.2 °F 93% 30.15 in 10.0 mi WNW 3.5 mph - N/A   Overcast
2:15 AM 32.0 °F 27.5 °F 30.2 °F 93% 30.15 in 10.0 mi NW 4.6 mph - N/A   Overcast
2:35 AM 33.8 °F 30.8 °F 30.2 °F 87% 30.13 in 10.0 mi NNW 3.5 mph - N/A   Overcast
2:55 AM 33.8 °F 28.6 °F 28.4 °F 81% 30.12 in 10.0 mi NNW 5.8 mph - N/A   Overcast
3:15 AM 33.8 °F - 28.4 °F 81% 30.14 in 10.0 mi Calm Calm - N/A   Overcast
3:35 AM 33.8 °F - 28.4 °F 81% 30.14 in 10.0 mi Calm Calm - N/A   Mostly Cloudy
3:55 AM 33.8 °F 28.6 °F 28.4 °F 81% 30.14 in 10.0 mi West 5.8 mph - N/A   Partly Cloudy
4:15 AM 33.8 °F 29.6 °F 26.6 °F 75% 30.14 in 10.0 mi West 4.6 mph - N/A   Clear
4:35 AM 32.0 °F - 26.6 °F 80% 30.15 in 10.0 mi Calm Calm - N/A   Clear
4:55 AM 30.2 °F 25.4 °F 26.6 °F 86% 30.16 in 10.0 mi WNW 4.6 mph - N/A   Clear
5:55 AM 30.2 °F 25.4 °F 28.4 °F 93% 30.16 in 10.0 mi NW 4.6 mph - N/A   Mostly Cloudy
6:55 AM 32.0 °F 28.7 °F 26.6 °F 80% 30.17 in 10.0 mi NNW 3.5 mph - N/A   Mostly Cloudy
7:55 AM 33.8 °F - 28.4 °F 81% 30.21 in 10.0 mi Calm Calm - N/A   Mostly Cloudy
8:55 AM 35.6 °F 29.2 °F 28.4 °F 75% 30.24 in 10.0 mi NNW 8.1 mph - N/A   Mostly Cloudy
9:55 AM 35.6 °F 30.7 °F 30.2 °F 81% 30.26 in 10.0 mi NW 5.8 mph - N/A   Mostly Cloudy
10:55 AM 39.2 °F 33.6 °F 32.0 °F 75% 30.24 in 10.0 mi NW 8.1 mph - N/A   Mostly Cloudy
11:55 AM 44.6 °F 39.7 °F 33.8 °F 66% 30.22 in 10.0 mi NNW 9.2 mph - N/A   Scattered Clouds
12:55 PM 44.6 °F 40.2 °F 33.8 °F 66% 30.23 in 10.0 mi NNW 8.1 mph - N/A   Partly Cloudy
1:55 PM 44.6 °F 38.8 °F 33.8 °F 66% 30.26 in 10.0 mi NNW 11.5 mph - N/A   Partly Cloudy
2:55 PM 46.4 °F 42.4 °F 35.6 °F 66% 30.29 in 10.0 mi NNW 8.1 mph - N/A   Scattered Clouds
3:55 PM 46.4 °F 41.5 °F 37.4 °F 71% 30.31 in 10.0 mi NW 10.4 mph - N/A   Mostly Cloudy
4:55 PM 44.6 °F 39.7 °F 35.6 °F 71% 30.35 in 10.0 mi NNW 9.2 mph - N/A   Mostly Cloudy
7:55 PM 37.4 °F 32.1 °F 30.2 °F 75% 30.44 in 10.0 mi North 6.9 mph - N/A   Clear
8:55 PM 35.6 °F 29.2 °F 30.2 °F 81% 30.47 in 10.0 mi North 8.1 mph - N/A   Clear
9:55 PM 35.6 °F 29.9 °F 28.4 °F 75% 30.48 in 10.0 mi North 6.9 mph - N/A   Clear
10:55 PM 33.8 °F 28.6 °F 26.6 °F 75% 30.48 in 10.0 mi North 5.8 mph - N/A   Clear
11:55 PM 33.8 °F - 28.4 °F 81% 30.49 in 10.0 mi Calm Calm - N/A   Clear